Time,TemperatureF,DewpointF,PressureIn,WindDirection,WindDirectionDegrees,WindSpeedMPH,WindSpeedGustMPH,Humidity,HourlyPrecipIn,Conditions,Clouds,dailyrainin,SoftwareType,DateUTC
2013-02-14 00:00:00,41.2,20.3,31.02,WSW,249,0.0,5.0,43,0.00,,,0.00,meteohub,2013-02-14 05:00:00,
2013-02-14 00:05:00,41.0,20.3,31.02,NNE,20,2.0,4.0,43,0.00,,,0.00,meteohub,2013-02-14 05:05:00,
2013-02-14 00:06:00,41.0,20.3,31.02,North,2,2.0,4.0,43,0.00,,,0.00,meteohub,2013-02-14 05:06:00,
2013-02-14 00:11:00,40.6,20.5,31.02,North,0,3.0,5.0,44,0.00,,,0.00,meteohub,2013-02-14 05:11:00,
2013-02-14 00:16:00,40.6,19.9,31.02,NE,39,0.0,5.0,43,0.00,,,0.00,meteohub,2013-02-14 05:16:00,
2013-02-14 00:22:00,40.5,20.3,31.02,East,92,0.0,5.0,44,0.00,,,0.00,meteohub,2013-02-14 05:22:00,
2013-02-14 00:27:00,40.3,20.1,31.02,NNE,33,2.0,5.0,44,0.00,,,0.00,meteohub,2013-02-14 05:27:00,
2013-02-14 00:32:00,40.1,19.4,31.02,North,0,3.0,5.0,43,0.00,,,0.00,meteohub,2013-02-14 05:32:00,
2013-02-14 00:37:00,40.1,19.4,31.02,North,349,0.0,9.0,43,0.00,,,0.00,meteohub,2013-02-14 05:37:00,
2013-02-14 00:42:00,40.1,18.9,31.02,NE,53,0.0,9.0,42,0.00,,,0.00,meteohub,2013-02-14 05:42:00,
2013-02-14 00:47:00,39.9,18.7,31.02,NNW,328,0.0,5.0,42,0.00,,,0.00,meteohub,2013-02-14 05:47:00,
2013-02-14 00:52:00,39.7,19.0,31.02,WNW,300,0.0,5.0,43,0.00,,,0.00,meteohub,2013-02-14 05:52:00,
2013-02-14 00:57:00,39.6,18.3,31.02,NNE,33,0.0,4.0,42,0.00,,,0.00,meteohub,2013-02-14 05:57:00,
2013-02-14 01:02:00,39.4,18.1,31.02,NNE,32,0.0,3.0,42,0.00,,,0.00,meteohub,2013-02-14 06:02:00,
2013-02-14 01:07:00,39.4,18.1,31.02,NNE,32,0.0,3.0,42,0.00,,,0.00,meteohub,2013-02-14 06:07:00,
2013-02-14 01:12:00,39.2,18.5,31.02,NW,313,0.0,0.0,43,0.00,,,0.00,meteohub,2013-02-14 06:12:00,
2013-02-14 01:17:00,38.8,18.3,31.02,ENE,71,0.0,4.0,43,0.00,,,0.00,meteohub,2013-02-14 06:17:00,
2013-02-14 01:22:00,38.5,18.5,31.02,NNW,343,0.0,4.0,44,0.00,,,0.00,meteohub,2013-02-14 06:22:00,
2013-02-14 01:27:00,38.1,18.1,31.02,NNW,343,0.0,4.0,44,0.00,,,0.00,meteohub,2013-02-14 06:27:00,
2013-02-14 01:32:00,37.9,18.0,31.02,North,2,0.0,3.0,44,0.00,,,0.00,meteohub,2013-02-14 06:32:00,
2013-02-14 01:37:00,37.6,18.1,31.02,North,357,0.0,0.0,45,0.00,,,0.00,meteohub,2013-02-14 06:37:00,
2013-02-14 01:42:00,37.4,18.0,31.02,North,357,0.0,2.0,45,0.00,,,0.00,meteohub,2013-02-14 06:42:00,
2013-02-14 01:47:00,37.2,18.3,31.02,NE,46,0.0,2.0,46,0.00,,,0.00,meteohub,2013-02-14 06:47:00,
2013-02-14 01:52:00,37.0,18.1,31.02,North,353,0.0,2.0,46,0.00,,,0.00,meteohub,2013-02-14 06:52:00,
2013-02-14 01:57:00,37.0,18.7,31.02,ENE,58,0.0,3.0,47,0.00,,,0.00,meteohub,2013-02-14 06:57:00,
2013-02-14 02:02:00,37.0,18.7,31.02,ENE,69,3.0,4.0,47,0.00,,,0.00,meteohub,2013-02-14 07:02:00,
2013-02-14 02:07:00,37.0,18.7,31.02,ENE,74,0.0,4.0,47,0.00,,,0.00,meteohub,2013-02-14 07:07:00,
2013-02-14 02:12:00,36.9,18.5,31.02,ENE,74,0.0,4.0,47,0.00,,,0.00,meteohub,2013-02-14 07:12:00,
2013-02-14 02:17:00,36.7,18.3,31.02,ENE,74,0.0,3.0,47,0.00,,,0.00,meteohub,2013-02-14 07:17:00,
2013-02-14 02:22:00,36.3,18.0,31.02,NNE,32,0.0,3.0,47,0.00,,,0.00,meteohub,2013-02-14 07:22:00,
2013-02-14 02:27:00,36.1,18.3,31.02,NNE,32,0.0,3.0,48,0.00,,,0.00,meteohub,2013-02-14 07:27:00,
2013-02-14 02:32:00,36.0,18.1,31.02,ENE,60,3.0,4.0,48,0.00,,,0.00,meteohub,2013-02-14 07:32:00,
2013-02-14 02:37:00,35.8,18.0,31.02,NE,51,0.0,4.0,48,0.00,,,0.00,meteohub,2013-02-14 07:37:00,
2013-02-14 02:42:00,35.8,18.5,31.02,NNE,14,4.0,4.0,49,0.00,,,0.00,meteohub,2013-02-14 07:42:00,
2013-02-14 02:47:00,35.6,18.3,31.02,North,357,0.0,4.0,49,0.00,,,0.00,meteohub,2013-02-14 07:47:00,
2013-02-14 02:52:00,35.6,18.3,31.02,North,357,0.0,4.0,49,0.00,,,0.00,meteohub,2013-02-14 07:52:00,
2013-02-14 02:57:00,35.8,19.0,31.02,North,357,0.0,4.0,50,0.00,,,0.00,meteohub,2013-02-14 07:57:00,
2013-02-14 03:02:00,35.8,19.0,31.02,NNW,335,0.0,0.0,50,0.00,,,0.00,meteohub,2013-02-14 08:02:00,
2013-02-14 03:07:00,36.0,19.0,31.02,East,95,0.0,0.0,50,0.00,,,0.00,meteohub,2013-02-14 08:07:00,
2013-02-14 03:12:00,36.1,19.2,31.02,NE,39,4.0,4.0,50,0.00,,,0.00,meteohub,2013-02-14 08:12:00,
2013-02-14 03:17:00,36.1,19.2,31.02,NE,53,2.0,5.0,50,0.00,,,0.00,meteohub,2013-02-14 08:17:00,
2013-02-14 03:22:00,36.1,19.2,31.02,North,353,0.0,5.0,50,0.00,,,0.00,meteohub,2013-02-14 08:22:00,
2013-02-14 03:27:00,36.1,19.2,31.02,NNE,19,5.0,5.0,50,0.00,,,0.00,meteohub,2013-02-14 08:27:00,
2013-02-14 03:32:00,36.1,19.2,31.02,North,11,2.0,5.0,50,0.00,,,0.00,meteohub,2013-02-14 08:32:00,
2013-02-14 03:37:00,36.1,19.2,31.02,North,357,0.0,5.0,50,0.00,,,0.00,meteohub,2013-02-14 08:37:00,
2013-02-14 03:42:00,36.1,19.2,31.02,North,5,0.0,5.0,50,0.00,,,0.00,meteohub,2013-02-14 08:42:00,
2013-02-14 03:47:00,36.1,19.2,31.02,NE,43,0.0,5.0,50,0.00,,,0.00,meteohub,2013-02-14 08:47:00,
2013-02-14 03:52:00,36.0,19.0,31.02,NNE,14,0.0,3.0,50,0.00,,,0.00,meteohub,2013-02-14 08:52:00,
2013-02-14 03:57:00,35.8,19.0,31.02,North,0,0.0,3.0,50,0.00,,,0.00,meteohub,2013-02-14 08:57:00,
2013-02-14 04:02:00,35.6,18.9,31.02,North,0,0.0,3.0,50,0.00,,,0.00,meteohub,2013-02-14 09:02:00,
2013-02-14 04:07:00,35.4,18.7,31.02,North,0,0.0,3.0,50,0.00,,,0.00,meteohub,2013-02-14 09:07:00,
2013-02-14 04:12:00,35.2,18.5,31.02,North,0,0.0,0.0,50,0.00,,,0.00,meteohub,2013-02-14 09:12:00,
2013-02-14 04:17:00,35.1,18.3,31.02,North,0,0.0,0.0,50,0.00,,,0.00,meteohub,2013-02-14 09:17:00,
2013-02-14 04:22:00,34.7,18.0,31.02,North,0,0.0,0.0,50,0.00,,,0.00,meteohub,2013-02-14 09:22:00,
2013-02-14 04:27:00,34.3,17.6,31.02,North,0,0.0,0.0,50,0.00,,,0.00,meteohub,2013-02-14 09:27:00,
2013-02-14 04:32:00,33.8,17.1,31.02,North,0,0.0,0.0,50,0.00,,,0.00,meteohub,2013-02-14 09:32:00,
2013-02-14 04:37:00,33.4,16.9,31.02,North,0,0.0,0.0,50,0.00,,,0.00,meteohub,2013-02-14 09:37:00,
2013-02-14 04:42:00,33.1,16.9,31.02,North,0,0.0,0.0,51,0.00,,,0.00,meteohub,2013-02-14 09:42:00,
2013-02-14 04:47:00,32.7,16.5,31.02,North,0,0.0,0.0,51,0.00,,,0.00,meteohub,2013-02-14 09:47:00,
2013-02-14 04:52:00,32.5,16.3,31.02,North,0,0.0,0.0,51,0.00,,,0.00,meteohub,2013-02-14 09:52:00,
2013-02-14 04:57:00,32.2,16.2,31.02,North,0,0.0,0.0,51,0.00,,,0.00,meteohub,2013-02-14 09:57:00,
2013-02-14 05:02:00,32.0,16.0,31.02,North,0,0.0,0.0,51,0.00,,,0.00,meteohub,2013-02-14 10:02:00,
2013-02-14 05:07:00,31.8,15.8,31.02,North,0,0.0,0.0,51,0.00,,,0.00,meteohub,2013-02-14 10:07:00,
2013-02-14 05:12:00,31.6,16.0,31.02,North,0,0.0,0.0,52,0.00,,,0.00,meteohub,2013-02-14 10:12:00,
2013-02-14 05:17:00,31.5,15.8,31.02,North,0,0.0,0.0,52,0.00,,,0.00,meteohub,2013-02-14 10:17:00,
2013-02-14 05:23:00,31.3,15.6,31.02,North,0,0.0,0.0,52,0.00,,,0.00,meteohub,2013-02-14 10:23:00,
2013-02-14 05:28:00,31.1,15.4,31.02,North,0,0.0,0.0,52,0.00,,,0.00,meteohub,2013-02-14 10:28:00,
2013-02-14 05:33:00,30.7,15.3,31.02,North,0,0.0,0.0,52,0.00,,,0.00,meteohub,2013-02-14 10:33:00,
2013-02-14 05:38:00,30.6,15.4,31.02,North,0,0.0,0.0,53,0.00,,,0.00,meteohub,2013-02-14 10:38:00,
2013-02-14 05:43:00,30.4,15.3,31.02,North,0,0.0,0.0,53,0.00,,,0.00,meteohub,2013-02-14 10:43:00,
2013-02-14 05:48:00,30.2,15.1,31.02,North,0,0.0,0.0,53,0.00,,,0.00,meteohub,2013-02-14 10:48:00,
2013-02-14 05:53:00,30.2,15.1,31.02,North,0,0.0,0.0,53,0.00,,,0.00,meteohub,2013-02-14 10:53:00,
2013-02-14 05:58:00,30.0,15.4,31.02,North,0,0.0,0.0,54,0.00,,,0.00,meteohub,2013-02-14 10:58:00,
2013-02-14 06:04:00,29.8,15.3,31.02,North,0,0.0,0.0,54,0.00,,,0.00,meteohub,2013-02-14 11:04:00,
2013-02-14 06:09:00,29.7,15.1,31.02,North,0,0.0,0.0,54,0.00,,,0.00,meteohub,2013-02-14 11:09:00,
2013-02-14 06:14:00,29.5,14.9,31.02,North,0,0.0,0.0,54,0.00,,,0.00,meteohub,2013-02-14 11:14:00,
2013-02-14 06:19:00,29.5,15.3,31.02,North,0,0.0,0.0,55,0.00,,,0.00,meteohub,2013-02-14 11:19:00,
2013-02-14 06:24:00,29.5,15.3,31.02,North,0,0.0,0.0,55,0.00,,,0.00,meteohub,2013-02-14 11:24:00,
2013-02-14 06:29:00,29.3,15.1,31.02,North,0,0.0,0.0,55,0.00,,,0.00,meteohub,2013-02-14 11:29:00,
2013-02-14 06:34:00,29.1,14.9,31.02,North,0,0.0,0.0,55,0.00,,,0.00,meteohub,2013-02-14 11:34:00,
2013-02-14 06:39:00,28.9,14.7,31.02,North,0,0.0,0.0,55,0.00,,,0.00,meteohub,2013-02-14 11:39:00,
2013-02-14 06:45:00,28.8,15.1,31.02,North,0,0.0,0.0,56,0.00,,,0.00,meteohub,2013-02-14 11:45:00,
2013-02-14 06:50:00,28.8,15.1,31.02,North,0,0.0,0.0,56,0.00,,,0.00,meteohub,2013-02-14 11:50:00,
2013-02-14 06:55:00,28.8,15.1,31.02,North,0,0.0,0.0,56,0.00,,,0.00,meteohub,2013-02-14 11:55:00,
2013-02-14 07:00:00,28.6,14.9,31.02,North,0,0.0,0.0,56,0.00,,,0.00,meteohub,2013-02-14 12:00:00,
2013-02-14 07:05:00,28.6,15.3,31.02,North,0,0.0,0.0,57,0.00,,,0.00,meteohub,2013-02-14 12:05:00,
2013-02-14 07:10:00,28.4,15.1,31.02,North,0,0.0,0.0,57,0.00,,,0.00,meteohub,2013-02-14 12:10:00,
2013-02-14 07:15:00,28.4,15.1,31.02,North,0,0.0,0.0,57,0.00,,,0.00,meteohub,2013-02-14 12:15:00,
2013-02-14 07:21:00,28.4,15.4,31.02,North,0,0.0,0.0,58,0.00,,,0.00,meteohub,2013-02-14 12:21:00,
2013-02-14 07:26:00,28.4,15.4,31.02,North,0,0.0,0.0,58,0.00,,,0.00,meteohub,2013-02-14 12:26:00,
2013-02-14 07:31:00,28.4,15.4,31.02,North,0,0.0,0.0,58,0.00,,,0.00,meteohub,2013-02-14 12:31:00,
2013-02-14 07:36:00,28.4,16.0,31.02,North,0,0.0,0.0,59,0.00,,,0.00,meteohub,2013-02-14 12:36:00,
2013-02-14 07:41:00,28.6,16.2,31.02,North,357,0.0,0.0,59,0.00,,,0.00,meteohub,2013-02-14 12:41:00,
2013-02-14 07:46:00,28.6,16.2,31.02,North,0,0.0,0.0,59,0.00,,,0.00,meteohub,2013-02-14 12:46:00,
2013-02-14 07:51:00,28.8,16.2,31.02,North,0,0.0,0.0,59,0.00,,,0.00,meteohub,2013-02-14 12:51:00,
2013-02-14 07:56:00,28.9,16.9,31.02,North,0,0.0,0.0,60,0.00,,,0.00,meteohub,2013-02-14 12:56:00,
2013-02-14 08:02:00,29.3,17.1,31.02,North,0,0.0,0.0,60,0.00,,,0.00,meteohub,2013-02-14 13:02:00,
2013-02-14 08:07:00,29.5,17.8,31.02,North,0,0.0,0.0,61,0.00,,,0.00,meteohub,2013-02-14 13:07:00,
2013-02-14 08:12:00,30.0,18.5,31.02,North,349,0.0,0.0,62,0.00,,,0.00,meteohub,2013-02-14 13:12:00,
2013-02-14 08:17:00,30.6,19.0,31.02,North,349,0.0,0.0,62,0.00,,,0.00,meteohub,2013-02-14 13:17:00,
2013-02-14 08:22:00,31.1,19.6,31.02,North,349,0.0,0.0,62,0.00,,,0.00,meteohub,2013-02-14 13:22:00,
2013-02-14 08:27:00,31.5,20.3,31.02,North,349,0.0,0.0,63,0.00,,,0.00,meteohub,2013-02-14 13:27:00,
2013-02-14 08:32:00,31.8,20.7,31.02,North,349,0.0,0.0,63,0.00,,,0.00,meteohub,2013-02-14 13:32:00,
2013-02-14 08:37:00,32.2,21.4,31.02,North,349,0.0,0.0,64,0.00,,,0.00,meteohub,2013-02-14 13:37:00,
2013-02-14 08:42:00,33.1,23.4,31.02,North,349,0.0,0.0,67,0.00,,,0.00,meteohub,2013-02-14 13:42:00,
2013-02-14 08:47:00,33.8,25.3,31.02,SW,224,0.0,0.0,71,0.00,,,0.00,meteohub,2013-02-14 13:47:00,
2013-02-14 08:52:00,34.7,27.0,31.02,NW,318,0.0,0.0,73,0.00,,,0.00,meteohub,2013-02-14 13:52:00,
2013-02-14 08:57:00,35.6,27.9,31.02,NNE,22,0.0,0.0,73,0.00,,,0.00,meteohub,2013-02-14 13:57:00,
2013-02-14 09:02:00,36.3,29.1,31.02,NNE,16,0.0,0.0,75,0.00,,,0.00,meteohub,2013-02-14 14:02:00,
2013-02-14 09:07:00,37.0,29.5,31.02,North,0,0.0,3.0,74,0.00,,,0.00,meteohub,2013-02-14 14:07:00,
2013-02-14 09:12:00,37.8,29.5,31.02,NNE,30,0.0,3.0,72,0.00,,,0.00,meteohub,2013-02-14 14:12:00,
2013-02-14 09:17:00,38.7,29.3,31.02,NE,41,4.0,6.0,69,0.00,,,0.00,meteohub,2013-02-14 14:17:00,
2013-02-14 09:22:00,39.7,29.7,31.02,NNE,22,3.0,6.0,67,0.00,,,0.00,meteohub,2013-02-14 14:22:00,
2013-02-14 09:27:00,40.6,28.6,31.02,NE,48,3.0,6.0,62,0.00,,,0.00,meteohub,2013-02-14 14:27:00,
2013-02-14 09:32:00,41.7,26.2,31.02,East,83,3.0,6.0,54,0.00,,,0.00,meteohub,2013-02-14 14:32:00,
2013-02-14 09:37:00,43.0,24.6,31.02,WNW,287,4.0,8.0,48,0.00,,,0.00,meteohub,2013-02-14 14:37:00,
2013-02-14 09:42:00,44.6,24.6,31.02,NE,47,5.0,8.0,45,0.00,,,0.00,meteohub,2013-02-14 14:42:00,
2013-02-14 09:47:00,45.9,25.7,31.02,NW,323,2.0,8.0,45,0.00,,,0.00,meteohub,2013-02-14 14:47:00,
2013-02-14 09:52:00,46.8,23.7,31.02,NW,312,0.0,8.0,40,0.00,,,0.00,meteohub,2013-02-14 14:52:00,
2013-02-14 09:57:00,47.3,23.5,31.02,NE,46,4.0,6.0,39,0.00,,,0.00,meteohub,2013-02-14 14:57:00,
2013-02-14 10:02:00,48.0,24.3,31.02,NNW,334,5.0,8.0,39,0.00,,,0.00,meteohub,2013-02-14 15:02:00,
2013-02-14 10:07:00,48.6,21.4,31.02,North,357,0.0,8.0,34,0.00,,,0.00,meteohub,2013-02-14 15:07:00,
2013-02-14 10:12:00,48.7,20.8,31.02,NNW,348,3.0,8.0,33,0.00,,,0.00,meteohub,2013-02-14 15:12:00,
2013-02-14 10:17:00,48.6,20.8,31.02,NE,50,6.0,6.0,33,0.00,,,0.00,meteohub,2013-02-14 15:17:00,
2013-02-14 10:22:00,48.9,18.9,31.02,North,357,4.0,6.0,30,0.00,,,0.00,meteohub,2013-02-14 15:22:00,
2013-02-14 10:27:00,49.1,17.4,31.02,NNW,332,3.0,6.0,28,0.00,,,0.00,meteohub,2013-02-14 15:27:00,
2013-02-14 10:32:00,49.5,18.5,31.02,North,353,0.0,6.0,29,0.00,,,0.00,meteohub,2013-02-14 15:32:00,
2013-02-14 10:37:00,49.8,18.0,31.02,NNW,333,3.0,6.0,28,0.00,,,0.00,meteohub,2013-02-14 15:37:00,
2013-02-14 10:42:00,50.5,20.3,31.02,North,350,4.0,4.0,30,0.00,,,0.00,meteohub,2013-02-14 15:42:00,
2013-02-14 10:47:00,51.3,20.8,31.02,NE,38,0.0,4.0,30,0.00,,,0.00,meteohub,2013-02-14 15:47:00,
2013-02-14 10:52:00,51.3,19.2,31.02,SW,233,4.0,8.0,28,0.00,,,0.00,meteohub,2013-02-14 15:52:00,
2013-02-14 10:57:00,50.9,18.1,31.02,NE,51,2.0,6.0,27,0.00,,,0.00,meteohub,2013-02-14 15:57:00,
2013-02-14 11:02:00,51.1,18.3,31.02,NNE,15,3.0,4.0,27,0.00,,,0.00,meteohub,2013-02-14 16:02:00,
2013-02-14 11:07:00,51.1,18.3,31.02,NW,324,2.0,4.0,27,0.00,,,0.00,meteohub,2013-02-14 16:07:00,
2013-02-14 11:12:00,51.1,19.0,31.02,NNW,342,0.0,6.0,28,0.00,,,0.00,meteohub,2013-02-14 16:12:00,
2013-02-14 11:17:00,50.7,17.1,31.02,NNW,335,0.0,6.0,26,0.00,,,0.00,meteohub,2013-02-14 16:17:00,
2013-02-14 11:22:00,50.9,18.1,31.02,South,183,0.0,6.0,27,0.00,,,0.00,meteohub,2013-02-14 16:22:00,
2013-02-14 11:27:00,50.7,18.0,31.02,East,83,3.0,6.0,27,0.00,,,0.00,meteohub,2013-02-14 16:27:00,
2013-02-14 11:32:00,50.5,17.8,31.02,NNE,31,3.0,5.0,27,0.00,,,0.00,meteohub,2013-02-14 16:32:00,
2013-02-14 11:37:00,51.3,18.3,31.02,East,87,0.0,5.0,27,0.00,,,0.00,meteohub,2013-02-14 16:37:00,
2013-02-14 11:42:00,51.8,18.9,31.02,NNE,29,0.0,6.0,27,0.00,,,0.00,meteohub,2013-02-14 16:42:00,
2013-02-14 11:47:00,52.3,19.4,31.02,ENE,61,3.0,6.0,27,0.00,,,0.00,meteohub,2013-02-14 16:47:00,
2013-02-14 11:52:00,53.1,19.9,31.02,East,93,2.0,6.0,27,0.00,,,0.00,meteohub,2013-02-14 16:52:00,
2013-02-14 11:57:00,53.4,20.3,31.02,NNE,33,2.0,5.0,27,0.00,,,0.00,meteohub,2013-02-14 16:57:00,
2013-02-14 12:02:00,53.4,20.3,31.02,NE,41,0.0,5.0,27,0.00,,,0.00,meteohub,2013-02-14 17:02:00,
2013-02-14 12:07:00,52.9,18.9,31.02,North,3,0.0,5.0,26,0.00,,,0.00,meteohub,2013-02-14 17:07:00,
2013-02-14 12:12:00,53.1,19.0,31.02,SSW,213,3.0,3.0,26,0.00,,,0.00,meteohub,2013-02-14 17:12:00,
2013-02-14 12:17:00,52.5,15.8,31.02,NW,313,2.0,3.0,23,0.00,,,0.00,meteohub,2013-02-14 17:17:00,
2013-02-14 12:22:00,52.5,18.7,31.02,West,281,0.0,4.0,26,0.00,,,0.00,meteohub,2013-02-14 17:22:00,
2013-02-14 12:27:00,53.2,19.2,31.02,NNW,330,0.0,4.0,26,0.00,,,0.00,meteohub,2013-02-14 17:27:00,
2013-02-14 12:32:00,53.6,18.7,31.02,North,350,0.0,4.0,25,0.00,,,0.00,meteohub,2013-02-14 17:32:00,
2013-02-14 12:37:00,53.6,18.7,31.02,North,9,0.0,5.0,25,0.00,,,0.00,meteohub,2013-02-14 17:37:00,
2013-02-14 12:42:00,53.2,16.3,31.02,NE,34,4.0,5.0,23,0.00,,,0.00,meteohub,2013-02-14 17:42:00,
2013-02-14 12:47:00,52.9,14.0,31.02,SW,226,0.0,5.0,21,0.00,,,0.00,meteohub,2013-02-14 17:47:00,
2013-02-14 12:52:00,52.7,16.0,31.02,South,182,4.0,4.0,23,0.00,,,0.00,meteohub,2013-02-14 17:52:00,
2013-02-14 12:57:00,52.2,15.4,31.02,West,272,0.0,4.0,23,0.00,,,0.00,meteohub,2013-02-14 17:57:00,
2013-02-14 13:02:00,52.2,13.5,31.02,WSW,242,3.0,5.0,21,0.00,,,0.00,meteohub,2013-02-14 18:02:00,
2013-02-14 13:07:00,52.3,15.6,31.02,North,0,2.0,5.0,23,0.00,,,0.00,meteohub,2013-02-14 18:07:00,
2013-02-14 13:12:00,53.1,14.2,31.02,SW,229,4.0,5.0,21,0.00,,,0.00,meteohub,2013-02-14 18:12:00,
2013-02-14 13:17:00,53.1,14.2,31.02,South,176,4.0,5.0,21,0.00,,,0.00,meteohub,2013-02-14 18:17:00,
2013-02-14 13:22:00,53.1,14.2,31.02,NW,317,3.0,6.0,21,0.00,,,0.00,meteohub,2013-02-14 18:22:00,
2013-02-14 13:27:00,53.6,13.5,31.02,NNW,335,2.0,6.0,20,0.00,,,0.00,meteohub,2013-02-14 18:27:00,
2013-02-14 13:32:00,53.6,11.1,31.02,SSE,156,5.0,6.0,18,0.00,,,0.00,meteohub,2013-02-14 18:32:00,
2013-02-14 13:37:00,53.4,10.9,31.02,SW,233,5.0,5.0,18,0.00,,,0.00,meteohub,2013-02-14 18:37:00,
2013-02-14 13:42:00,53.1,10.6,31.02,West,281,3.0,5.0,18,0.00,,,0.00,meteohub,2013-02-14 18:42:00,
2013-02-14 13:47:00,53.1,10.6,31.02,South,183,2.0,5.0,18,0.00,,,0.00,meteohub,2013-02-14 18:47:00,
2013-02-14 13:52:00,53.2,10.8,31.02,SW,214,3.0,5.0,18,0.00,,,0.00,meteohub,2013-02-14 18:52:00,
2013-02-14 13:57:00,52.9,10.6,31.02,South,188,3.0,5.0,18,0.00,,,0.00,meteohub,2013-02-14 18:57:00,
2013-02-14 14:02:00,52.3,10.0,31.02,SSW,204,3.0,6.0,18,0.00,,,0.00,meteohub,2013-02-14 19:02:00,
2013-02-14 14:07:00,52.3,10.0,31.02,SSW,207,3.0,6.0,18,0.00,,,0.00,meteohub,2013-02-14 19:07:00,
2013-02-14 14:12:00,52.0,9.7,31.02,WNW,294,2.0,6.0,18,0.00,,,0.00,meteohub,2013-02-14 19:12:00,
2013-02-14 14:17:00,51.6,10.8,31.02,NW,307,3.0,6.0,19,0.00,,,0.00,meteohub,2013-02-14 19:17:00,
2013-02-14 14:22:00,51.3,10.4,31.02,WSW,249,0.0,6.0,19,0.00,,,0.00,meteohub,2013-02-14 19:22:00,
2013-02-14 14:27:00,51.3,10.4,31.02,North,0,2.0,6.0,19,0.00,,,0.00,meteohub,2013-02-14 19:27:00,
2013-02-14 14:32:00,51.3,10.4,31.02,WSW,247,0.0,4.0,19,0.00,,,0.00,meteohub,2013-02-14 19:32:00,
2013-02-14 14:37:00,51.8,9.7,31.02,WSW,249,0.0,5.0,18,0.00,,,0.00,meteohub,2013-02-14 19:37:00,
2013-02-14 14:42:00,53.4,10.9,31.02,ESE,121,4.0,5.0,18,0.00,,,0.00,meteohub,2013-02-14 19:42:00,
2013-02-14 14:47:00,54.5,11.8,31.02,South,189,4.0,5.0,18,0.00,,,0.00,meteohub,2013-02-14 19:47:00,
2013-02-14 14:52:00,54.0,11.5,31.02,SSE,165,3.0,6.0,18,0.00,,,0.00,meteohub,2013-02-14 19:52:00,
2013-02-14 14:57:00,54.0,11.5,31.02,WSW,238,5.0,6.0,18,0.00,,,0.00,meteohub,2013-02-14 19:57:00,
2013-02-14 15:03:00,53.6,11.1,31.02,SW,233,4.0,7.0,18,0.00,,,0.00,meteohub,2013-02-14 20:03:00,
2013-02-14 15:08:00,53.1,10.6,31.02,North,3,2.0,7.0,18,0.00,,,0.00,meteohub,2013-02-14 20:08:00,
2013-02-14 15:13:00,52.9,10.6,31.02,SW,229,3.0,7.0,18,0.00,,,0.00,meteohub,2013-02-14 20:13:00,
2013-02-14 15:18:00,52.5,10.2,31.02,NNW,334,3.0,5.0,18,0.00,,,0.00,meteohub,2013-02-14 20:18:00,
2013-02-14 15:23:00,52.3,10.0,31.02,NW,312,2.0,5.0,18,0.00,,,0.00,meteohub,2013-02-14 20:23:00,
2013-02-14 15:28:00,52.2,9.9,31.02,SW,217,2.0,6.0,18,0.00,,,0.00,meteohub,2013-02-14 20:28:00,
2013-02-14 15:33:00,51.6,10.8,31.02,West,261,3.0,6.0,19,0.00,,,0.00,meteohub,2013-02-14 20:33:00,
2013-02-14 15:38:00,51.1,10.2,31.02,SW,230,0.0,6.0,19,0.00,,,0.00,meteohub,2013-02-14 20:38:00,
2013-02-14 15:43:00,50.9,10.0,31.02,WSW,243,0.0,6.0,19,0.00,,,0.00,meteohub,2013-02-14 20:43:00,
2013-02-14 15:48:00,50.9,10.0,31.02,SW,221,3.0,6.0,19,0.00,,,0.00,meteohub,2013-02-14 20:48:00,
2013-02-14 15:53:00,51.3,10.4,31.02,WSW,257,0.0,5.0,19,0.00,,,0.00,meteohub,2013-02-14 20:53:00,
2013-02-14 15:58:00,51.3,10.4,31.02,SSW,201,4.0,6.0,19,0.00,,,0.00,meteohub,2013-02-14 20:58:00,
2013-02-14 16:04:00,50.9,10.0,31.02,WSW,237,3.0,6.0,19,0.00,,,0.00,meteohub,2013-02-14 21:04:00,
2013-02-14 16:09:00,50.5,9.9,31.02,WSW,248,4.0,6.0,19,0.00,,,0.00,meteohub,2013-02-14 21:09:00,
2013-02-14 16:14:00,50.4,9.7,31.02,SSW,207,3.0,6.0,19,0.00,,,0.00,meteohub,2013-02-14 21:14:00,
2013-02-14 16:19:00,50.4,9.7,31.02,SW,229,4.0,6.0,19,0.00,,,0.00,meteohub,2013-02-14 21:19:00,
2013-02-14 16:24:00,50.4,9.7,31.02,SW,225,0.0,5.0,19,0.00,,,0.00,meteohub,2013-02-14 21:24:00,
2013-02-14 16:29:00,50.2,9.5,31.02,WNW,284,3.0,5.0,19,0.00,,,0.00,meteohub,2013-02-14 21:29:00,
2013-02-14 16:34:00,50.2,9.5,31.02,SSW,196,3.0,5.0,19,0.00,,,0.00,meteohub,2013-02-14 21:34:00,
2013-02-14 16:39:00,50.2,9.5,31.02,WSW,240,2.0,5.0,19,0.00,,,0.00,meteohub,2013-02-14 21:39:00,
2013-02-14 16:44:00,50.2,9.5,31.02,SSW,192,4.0,5.0,19,0.00,,,0.00,meteohub,2013-02-14 21:44:00,
2013-02-14 16:49:00,50.0,9.3,31.02,WSW,245,0.0,5.0,19,0.00,,,0.00,meteohub,2013-02-14 21:49:00,
2013-02-14 16:54:00,49.8,9.1,31.02,SSW,205,3.0,4.0,19,0.00,,,0.00,meteohub,2013-02-14 21:54:00,
2013-02-14 16:59:00,49.6,9.0,31.02,WSW,244,4.0,4.0,19,0.00,,,0.00,meteohub,2013-02-14 21:59:00,
2013-02-14 17:05:00,49.5,9.0,31.02,South,186,0.0,6.0,19,0.00,,,0.00,meteohub,2013-02-14 22:05:00,
2013-02-14 17:10:00,49.1,8.6,31.02,South,182,0.0,6.0,19,0.00,,,0.00,meteohub,2013-02-14 22:10:00,
2013-02-14 17:15:00,48.9,8.4,31.02,WSW,246,0.0,5.0,19,0.00,,,0.00,meteohub,2013-02-14 22:15:00,
2013-02-14 17:20:00,48.9,8.4,31.02,SW,218,0.0,4.0,19,0.00,,,0.00,meteohub,2013-02-14 22:20:00,
2013-02-14 17:25:00,48.7,8.2,31.02,SW,236,0.0,4.0,19,0.00,,,0.00,meteohub,2013-02-14 22:25:00,
2013-02-14 17:30:00,48.4,8.1,31.02,SW,214,0.0,0.0,19,0.00,,,0.00,meteohub,2013-02-14 22:30:00,
2013-02-14 17:35:00,48.2,7.9,31.02,SW,214,0.0,0.0,19,0.00,,,0.00,meteohub,2013-02-14 22:35:00,
2013-02-14 17:40:00,47.8,10.8,31.02,SW,214,0.0,0.0,22,0.00,,,0.00,meteohub,2013-02-14 22:40:00,
2013-02-14 17:45:00,47.5,10.6,31.02,SW,214,0.0,0.0,22,0.00,,,0.00,meteohub,2013-02-14 22:45:00,
2013-02-14 17:50:00,47.1,10.2,31.02,SW,214,0.0,0.0,22,0.00,,,0.00,meteohub,2013-02-14 22:50:00,
2013-02-14 17:56:00,46.8,9.9,31.02,SW,214,0.0,0.0,22,0.00,,,0.00,meteohub,2013-02-14 22:56:00,
2013-02-14 18:01:00,46.2,9.5,31.02,SW,214,0.0,0.0,22,0.00,,,0.00,meteohub,2013-02-14 23:01:00,
2013-02-14 18:06:00,45.7,9.0,31.02,SW,214,0.0,0.0,22,0.00,,,0.00,meteohub,2013-02-14 23:06:00,
2013-02-14 18:11:00,45.0,8.4,31.02,SW,214,0.0,0.0,22,0.00,,,0.00,meteohub,2013-02-14 23:11:00,
2013-02-14 18:16:00,44.2,10.6,31.02,SW,214,0.0,0.0,25,0.00,,,0.00,meteohub,2013-02-14 23:16:00,
2013-02-14 18:21:00,43.7,10.2,31.02,SW,214,0.0,0.0,25,0.00,,,0.00,meteohub,2013-02-14 23:21:00,
2013-02-14 18:26:00,43.0,12.0,31.02,SW,214,0.0,0.0,28,0.00,,,0.00,meteohub,2013-02-14 23:26:00,
2013-02-14 18:31:00,42.4,11.7,31.02,SW,214,0.0,0.0,28,0.00,,,0.00,meteohub,2013-02-14 23:31:00,
2013-02-14 18:36:00,41.7,10.9,31.02,SW,214,0.0,0.0,28,0.00,,,0.00,meteohub,2013-02-14 23:36:00,
2013-02-14 18:41:00,41.2,11.3,31.02,SW,214,0.0,0.0,29,0.00,,,0.00,meteohub,2013-02-14 23:41:00,
2013-02-14 18:47:00,40.8,10.9,31.02,SW,214,0.0,0.0,29,0.00,,,0.00,meteohub,2013-02-14 23:47:00,
2013-02-14 18:52:00,40.5,11.5,31.02,SW,214,0.0,0.0,30,0.00,,,0.00,meteohub,2013-02-14 23:52:00,
2013-02-14 18:57:00,40.1,11.1,31.02,SW,214,0.0,0.0,30,0.00,,,0.00,meteohub,2013-02-14 23:57:00,
2013-02-14 19:02:00,39.7,10.8,31.02,SW,214,0.0,0.0,30,0.00,,,0.00,meteohub,2013-02-15 00:02:00,
2013-02-14 19:07:00,39.4,11.3,31.02,SW,214,0.0,0.0,31,0.00,,,0.00,meteohub,2013-02-15 00:07:00,
2013-02-14 19:12:00,39.2,11.8,31.02,SW,214,0.0,0.0,32,0.00,,,0.00,meteohub,2013-02-15 00:12:00,
2013-02-14 19:17:00,39.0,12.4,31.02,SW,214,0.0,0.0,33,0.00,,,0.00,meteohub,2013-02-15 00:17:00,
2013-02-14 19:22:00,38.8,12.2,31.02,SW,214,0.0,0.0,33,0.00,,,0.00,meteohub,2013-02-15 00:22:00,
2013-02-14 19:27:00,38.7,12.7,31.02,SW,214,0.0,0.0,34,0.00,,,0.00,meteohub,2013-02-15 00:27:00,
2013-02-14 19:32:00,38.5,12.6,31.02,SW,214,0.0,0.0,34,0.00,,,0.00,meteohub,2013-02-15 00:32:00,
2013-02-14 19:37:00,38.3,13.1,31.02,SW,214,0.0,0.0,35,0.00,,,0.00,meteohub,2013-02-15 00:37:00,
2013-02-14 19:42:00,38.1,13.5,31.02,SW,214,0.0,0.0,36,0.00,,,0.00,meteohub,2013-02-15 00:42:00,
2013-02-14 19:47:00,37.8,13.3,31.02,SW,214,0.0,0.0,36,0.00,,,0.00,meteohub,2013-02-15 00:47:00,
2013-02-14 19:52:00,37.6,13.6,31.02,SW,214,0.0,0.0,37,0.00,,,0.00,meteohub,2013-02-15 00:52:00,
2013-02-14 19:57:00,37.2,14.0,31.02,SW,214,0.0,0.0,38,0.00,,,0.00,meteohub,2013-02-15 00:57:00,
2013-02-14 20:02:00,37.0,14.4,31.02,SW,214,0.0,0.0,39,0.00,,,0.00,meteohub,2013-02-15 01:02:00,
2013-02-14 20:07:00,36.9,14.2,31.02,SW,214,0.0,0.0,39,0.00,,,0.00,meteohub,2013-02-15 01:07:00,
2013-02-14 20:12:00,36.9,14.7,31.02,SW,214,0.0,0.0,40,0.00,,,0.00,meteohub,2013-02-15 01:12:00,
2013-02-14 20:17:00,36.9,14.7,31.02,SW,214,0.0,0.0,40,0.00,,,0.00,meteohub,2013-02-15 01:17:00,
2013-02-14 20:22:00,36.9,14.7,31.02,SW,214,0.0,0.0,40,0.00,,,0.00,meteohub,2013-02-15 01:22:00,
2013-02-14 20:27:00,36.9,14.7,31.02,SW,214,0.0,0.0,40,0.00,,,0.00,meteohub,2013-02-15 01:27:00,
2013-02-14 20:32:00,36.9,14.7,31.02,SW,214,0.0,0.0,40,0.00,,,0.00,meteohub,2013-02-15 01:32:00,
2013-02-14 20:38:00,36.9,15.4,31.02,SW,214,0.0,0.0,41,0.00,,,0.00,meteohub,2013-02-15 01:38:00,
2013-02-14 20:43:00,36.9,15.4,31.02,SW,214,0.0,0.0,41,0.00,,,0.00,meteohub,2013-02-15 01:43:00,
2013-02-14 20:48:00,36.9,15.4,31.02,SW,214,0.0,0.0,41,0.00,,,0.00,meteohub,2013-02-15 01:48:00,
2013-02-14 20:53:00,36.9,15.4,31.02,SW,214,0.0,0.0,41,0.00,,,0.00,meteohub,2013-02-15 01:53:00,
2013-02-14 20:58:00,36.7,15.3,31.02,SW,214,0.0,0.0,41,0.00,,,0.00,meteohub,2013-02-15 01:58:00,
2013-02-14 21:03:00,36.7,15.3,31.02,SW,214,0.0,0.0,41,0.00,,,0.00,meteohub,2013-02-15 02:03:00,
2013-02-14 21:08:00,36.5,15.1,31.02,SW,214,0.0,0.0,41,0.00,,,0.00,meteohub,2013-02-15 02:08:00,
2013-02-14 21:13:00,36.3,14.9,31.02,SW,214,0.0,0.0,41,0.00,,,0.00,meteohub,2013-02-15 02:13:00,
2013-02-14 21:18:00,36.1,15.3,31.02,SW,214,0.0,0.0,42,0.00,,,0.00,meteohub,2013-02-15 02:18:00,
2013-02-14 21:23:00,36.1,15.3,31.02,SSW,211,0.0,0.0,42,0.00,,,0.00,meteohub,2013-02-15 02:23:00,
2013-02-14 21:28:00,36.1,15.3,31.02,SSW,211,0.0,0.0,42,0.00,,,0.00,meteohub,2013-02-15 02:28:00,
2013-02-14 21:34:00,36.0,15.1,31.02,SSW,211,0.0,0.0,42,0.00,,,0.00,meteohub,2013-02-15 02:34:00,
2013-02-14 21:39:00,35.6,14.7,31.02,SSW,211,0.0,0.0,42,0.00,,,0.00,meteohub,2013-02-15 02:39:00,
2013-02-14 21:44:00,35.4,15.1,31.02,SSW,211,0.0,0.0,43,0.00,,,0.00,meteohub,2013-02-15 02:44:00,
2013-02-14 21:49:00,35.2,14.9,31.02,SSW,211,0.0,0.0,43,0.00,,,0.00,meteohub,2013-02-15 02:49:00,
2013-02-14 21:54:00,34.9,14.7,31.02,SSW,211,0.0,0.0,43,0.00,,,0.00,meteohub,2013-02-15 02:54:00,
2013-02-14 21:59:00,34.5,14.4,31.02,SSW,211,0.0,0.0,43,0.00,,,0.00,meteohub,2013-02-15 02:59:00,
2013-02-14 22:04:00,34.5,14.9,31.02,SSW,211,0.0,0.0,44,0.00,,,0.00,meteohub,2013-02-15 03:04:00,
2013-02-14 22:09:00,34.3,14.7,31.02,SSW,211,0.0,0.0,44,0.00,,,0.00,meteohub,2013-02-15 03:09:00,
2013-02-14 22:14:00,34.2,14.5,31.02,SSW,211,0.0,0.0,44,0.00,,,0.00,meteohub,2013-02-15 03:14:00,
2013-02-14 22:19:00,34.0,14.4,31.02,SSW,211,0.0,0.0,44,0.00,,,0.00,meteohub,2013-02-15 03:19:00,
2013-02-14 22:24:00,34.0,14.9,31.02,SSW,211,0.0,0.0,45,0.00,,,0.00,meteohub,2013-02-15 03:24:00,
2013-02-14 22:30:00,33.8,14.7,31.02,SSW,211,0.0,0.0,45,0.00,,,0.00,meteohub,2013-02-15 03:30:00,
2013-02-14 22:35:00,33.6,14.5,31.02,SSW,211,0.0,0.0,45,0.00,,,0.00,meteohub,2013-02-15 03:35:00,
2013-02-14 22:40:00,33.4,14.9,31.02,SSW,211,0.0,0.0,46,0.00,,,0.00,meteohub,2013-02-15 03:40:00,
2013-02-14 22:45:00,33.3,14.7,31.02,SSW,211,0.0,0.0,46,0.00,,,0.00,meteohub,2013-02-15 03:45:00,
2013-02-14 22:50:00,33.1,14.5,31.02,SSW,211,0.0,0.0,46,0.00,,,0.00,meteohub,2013-02-15 03:50:00,
2013-02-14 22:55:00,32.9,14.4,31.02,SSW,211,0.0,0.0,46,0.00,,,0.00,meteohub,2013-02-15 03:55:00,
2013-02-14 23:00:00,32.7,14.7,31.02,SSW,211,0.0,0.0,47,0.00,,,0.00,meteohub,2013-02-15 04:00:00,
2013-02-14 23:05:00,32.5,14.5,31.02,SSW,211,0.0,0.0,47,0.00,,,0.00,meteohub,2013-02-15 04:05:00,
2013-02-14 23:11:00,32.5,14.5,31.02,SSW,211,0.0,0.0,47,0.00,,,0.00,meteohub,2013-02-15 04:11:00,
2013-02-14 23:16:00,32.4,14.9,31.02,SSW,211,0.0,0.0,48,0.00,,,0.00,meteohub,2013-02-15 04:16:00,
2013-02-14 23:21:00,32.4,14.9,31.02,SSW,211,0.0,0.0,48,0.00,,,0.00,meteohub,2013-02-15 04:21:00,
2013-02-14 23:26:00,32.4,15.3,31.02,SSW,211,0.0,0.0,49,0.00,,,0.00,meteohub,2013-02-15 04:26:00,
2013-02-14 23:31:00,32.2,15.1,31.02,SSW,211,0.0,0.0,49,0.00,,,0.00,meteohub,2013-02-15 04:31:00,
2013-02-14 23:36:00,32.2,15.1,31.02,SSW,211,0.0,0.0,49,0.00,,,0.00,meteohub,2013-02-15 04:36:00,
2013-02-14 23:41:00,32.2,15.6,31.02,SSW,211,0.0,0.0,50,0.00,,,0.00,meteohub,2013-02-15 04:41:00,
2013-02-14 23:46:00,32.2,15.6,31.02,SSW,211,0.0,0.0,50,0.00,,,0.00,meteohub,2013-02-15 04:46:00,
2013-02-14 23:51:00,32.0,15.4,31.02,SSW,211,0.0,0.0,50,0.00,,,0.00,meteohub,2013-02-15 04:51:00,
2013-02-14 23:56:00,32.0,15.4,31.02,SSW,211,0.0,0.0,50,0.00,,,0.00,meteohub,2013-02-15 04:56:00,